GW1348 Weather Reports


Display with metric or nautical units.
time (UTC)temp
F
wind
direction
speed
MPH
gust
MPH
rain 1hr
in
rain 24hr
in
rain mn
in
humidity
%
barometer
mb
20260504030049 37 125 0.0 1.0 0.00 0.00 0.00 80 999.7
20260504025530 37 0 0.0 2.0 0.00 0.00 0.00 81 999.6
20260504025032 37 148 0.0 2.0 0.00 0.00 0.00 81 999.6
20260504024542 37 132 0.0 4.0 0.00 0.00 0.00 81 999.6
20260504024034 36 0 1.0 4.0 0.00 0.00 0.00 82 999.7
20260504023530 36 0 0.0 1.0 0.00 0.00 0.00 84 999.6
20260504023045 36 0 0.0 3.0 0.00 0.00 0.00 83 999.7
20260504022528 36 0 0.0 3.0 0.00 0.00 0.00 84 999.6
20260504022029 36 0 0.0 2.0 0.00 0.00 0.00 84 999.6
20260504021543 36 0 0.0 2.0 0.00 0.00 0.00 84 999.6
20260504021033 36 82 0.0 2.0 0.00 0.00 0.00 83 999.6
20260504020529 36 0 0.0 1.0 0.00 0.00 0.00 83 999.7
20260504020041 36 0 0.0 1.0 0.00 0.00 0.00 83 999.6
20260504015531 36 0 0.0 0.0 0.00 0.00 0.00 84 999.7
20260504015030 36 0 0.0 0.0 0.00 0.00 0.00 85 999.8
20260504014553 36 0 0.0 0.0 0.00 0.00 0.00 85 999.8
20260504014033 36 0 0.0 0.0 0.00 0.00 0.00 85 999.8
20260504013532 36 0 0.0 0.0 0.00 0.00 0.00 85 999.8
20260504013042 35 0 0.0 1.0 0.00 0.00 0.00 85 999.9
20260504012530 35 0 0.0 2.0 0.00 0.00 0.00 85 1000.0
20260504012030 36 0 0.0 2.0 0.00 0.00 0.00 83 1000.0
20260504011544 36 0 0.0 3.0 0.00 0.00 0.00 83 999.9
20260504011029 36 0 0.0 3.0 0.00 0.00 0.00 83 1000.1
20260504010530 36 140 0.0 4.0 0.00 0.00 0.00 84 1000.2
20260504010045 36 116 0.0 4.0 0.00 0.00 0.00 84 1000.3
20260504005531 36 0 0.0 3.0 0.00 0.00 0.00 84 1000.3
20260504005031 36 165 0.0 3.0 0.00 0.00 0.00 84 1000.3
20260504004543 36 138 1.0 2.0 0.00 0.00 0.00 84 1000.5
20260504004030 36 147 1.0 2.0 0.00 0.00 0.00 84 1000.6
20260504003531 35 0 0.0 2.0 0.00 0.00 0.00 84 1000.7
20260504003049 35 0 0.0 2.0 0.00 0.00 0.00 84 1000.8
20260504002530 35 0 0.0 2.0 0.00 0.00 0.00 84 1000.8
20260504002030 35 0 0.0 2.0 0.00 0.00 0.00 84 1000.9
20260504001542 35 0 0.0 2.0 0.00 0.00 0.00 84 1001.1
20260504001030 35 0 0.0 2.0 0.00 0.00 0.00 84 1001.2
20260504000530 35 0 0.0 1.0 0.00 0.00 0.00 83 1001.3
20260504000049 35 244 0.0 1.0 0.00 0.00 0.00 84 1001.3
20260503235554 35 254 0.0 2.0 0.00 0.00 0.00 84 1001.2
20260503235030 35 0 0.0 2.0 0.00 0.00 0.00 84 1001.4
20260503234548 35 249 1.0 2.0 0.00 0.00 0.00 84 1001.4
20260503234031 35 238 0.0 3.0 0.00 0.00 0.00 84 1001.5
20260503233530 35 127 0.0 3.0 0.00 0.00 0.00 84 1001.6
20260503233040 35 263 1.0 2.0 0.00 0.00 0.00 84 1001.6
20260503232530 35 231 1.0 2.0 0.00 0.00 0.00 84 1001.7
20260503232031 35 244 0.0 2.0 0.00 0.00 0.00 84 1001.8
20260503231542 35 257 1.0 2.0 0.00 0.00 0.00 84 1001.9
20260503231033 35 247 1.0 2.0 0.00 0.00 0.00 84 1001.9
20260503230530 35 268 1.0 2.0 0.00 0.00 0.00 84 1001.9
20260503230043 35 264 1.0 2.0 0.00 0.00 0.00 84 1002.1
20260503225534 35 241 1.0 2.0 0.00 0.00 0.00 83 1002.0
20260503225031 35 213 1.0 2.0 0.00 0.00 0.00 83 1002.2
20260503224544 35 252 1.0 2.0 0.00 0.00 0.00 84 1002.3
20260503224030 35 242 1.0 2.0 0.00 0.00 0.00 83 1002.4
20260503223530 35 236 1.0 2.0 0.00 0.00 0.00 83 1002.4
20260503223042 35 231 0.0 3.0 0.00 0.00 0.00 83 1002.4
20260503222530 35 252 1.0 3.0 0.00 0.00 0.00 83 1002.5
20260503222030 35 250 1.0 3.0 0.00 0.00 0.00 83 1002.6
20260503221544 35 245 0.0 2.0 0.00 0.00 0.00 83 1002.6
20260503221031 35 0 0.0 2.0 0.00 0.00 0.00 83 1002.6
20260503220533 35 229 1.0 2.0 0.00 0.00 0.00 83 1002.7
20260503220049 35 250 0.0 2.0 0.00 0.00 0.00 83 1002.7
20260503215530 36 0 1.0 1.0 0.00 0.00 0.00 82 1002.8
20260503215031 36 255 1.0 1.0 0.00 0.00 0.00 82 1002.9
20260503214540 36 248 0.0 1.0 0.00 0.00 0.00 83 1003.1
20260503214031 36 257 1.0 1.0 0.00 0.00 0.00 82 1003.1
20260503213530 36 0 0.0 0.0 0.00 0.00 0.00 82 1003.1
20260503213055 36 0 0.0 0.0 0.00 0.00 0.00 82 1003.2
20260503212530 36 0 0.0 0.0 0.00 0.00 0.00 82 1003.3
20260503212031 36 0 0.0 0.0 0.00 0.00 0.00 82 1003.4
20260503211547 36 0 0.0 0.0 0.00 0.00 0.00 81 1003.5
20260503211031 36 0 0.0 0.0 0.00 0.00 0.00 81 1003.5
20260503210531 37 0 0.0 0.0 0.00 0.00 0.00 81 1003.6
20260503210041 37 0 0.0 0.0 0.00 0.00 0.00 81 1003.7
20260503205534 36 0 0.0 0.0 0.00 0.00 0.00 82 1003.8
20260503205031 36 0 0.0 0.0 0.00 0.00 0.00 82 1003.9
20260503204542 36 0 0.0 0.0 0.00 0.00 0.00 82 1003.9
20260503204030 36 0 0.0 0.0 0.00 0.00 0.00 82 1004.0
20260503203530 37 0 0.0 0.0 0.00 0.00 0.00 81 1004.1
20260503203041 37 0 0.0 0.0 0.00 0.00 0.00 81 1004.2
20260503202530 37 0 0.0 0.0 0.00 0.00 0.00 81 1004.2
20260503202030 37 0 0.0 0.0 0.00 0.00 0.00 81 1004.2
20260503201547 37 0 0.0 1.0 0.00 0.00 0.00 81 1004.3
20260503201030 37 0 0.0 1.0 0.00 0.00 0.00 81 1004.4
20260503200530 37 0 0.0 1.0 0.00 0.00 0.00 80 1004.4
20260503200050 37 0 0.0 1.0 0.00 0.00 0.00 80 1004.5
20260503195531 38 0 0.0 1.0 0.00 0.00 0.00 79 1004.6
20260503195031 38 0 0.0 1.0 0.00 0.00 0.00 79 1004.7
20260503194544 38 0 0.0 1.0 0.00 0.00 0.00 78 1004.7
20260503194031 38 0 0.0 1.0 0.00 0.00 0.00 78 1004.8
20260503193531 39 0 0.0 2.0 0.00 0.00 0.00 77 1004.9
20260503193048 39 0 0.0 3.0 0.00 0.00 0.00 77 1004.9
20260503192530 39 0 0.0 3.0 0.00 0.00 0.00 76 1004.9
20260503192032 39 0 0.0 2.0 0.00 0.00 0.00 76 1004.8
20260503191540 39 0 0.0 2.0 0.00 0.00 0.00 75 1004.9
20260503191030 39 0 0.0 0.0 0.00 0.00 0.00 75 1004.8
20260503190530 39 0 0.0 0.0 0.00 0.00 0.00 75 1004.9
20260503190041 39 0 0.0 0.0 0.00 0.00 0.00 74 1004.9
20260503185531 40 0 0.0 0.0 0.00 0.00 0.00 74 1005.0
20260503185030 40 0 0.0 0.0 0.00 0.00 0.00 71 1004.9
20260503184600 40 0 0.0 0.0 0.00 0.00 0.00 70 1004.9
20260503184031 40 0 0.0 0.0 0.00 0.00 0.00 70 1004.9
20260503183531 40 0 0.0 0.0 0.00 0.00 0.00 70 1004.9
20260503183055 40 0 0.0 0.0 0.00 0.00 0.00 70 1004.9
20260503182533 40 0 0.0 0.0 0.00 0.00 0.00 70 1005.0
20260503182031 40 0 0.0 0.0 0.00 0.00 0.00 71 1005.0
20260503181541 40 0 0.0 0.0 0.00 0.00 0.00 71 1005.1
20260503181030 40 0 0.0 0.0 0.00 0.00 0.00 70 1005.1
20260503180532 41 0 0.0 0.0 0.00 0.00 0.00 71 1005.0
20260503180040 41 0 0.0 0.0 0.00 0.00 0.00 70 1005.2
20260503175530 41 0 0.0 0.0 0.00 0.01 0.00 71 1005.1
20260503175034 41 0 0.0 0.0 0.00 0.01 0.00 70 1005.1
20260503174544 41 0 0.0 0.0 0.00 0.01 0.00 69 1005.1
20260503174031 42 0 0.0 0.0 0.00 0.01 0.00 68 1005.1
20260503173531 42 0 0.0 0.0 0.00 0.01 0.00 68 1005.1
20260503173045 42 0 0.0 0.0 0.00 0.01 0.00 66 1005.2
20260503172531 42 0 0.0 0.0 0.00 0.01 0.00 65 1005.1
20260503172031 42 0 0.0 0.0 0.00 0.01 0.00 64 1005.3
20260503171542 43 0 0.0 0.0 0.00 0.01 0.00 63 1005.2
20260503171033 43 0 0.0 0.0 0.00 0.01 0.00 63 1005.2
20260503170531 43 0 0.0 0.0 0.00 0.01 0.00 62 1005.3
20260503150530 43 0 0.0 2.0 0.00 0.05 0.00 62 1007.0
20260503131030 44 58 0.0 2.0 0.00 0.05 0.00 62 1007.9
20260503130529 43 0 1.0 4.0 0.00 0.05 0.00 63 1007.9
20260503110531 43 26 0.0 3.0 0.00 0.07 0.00 64 1009.3
20260503081610 39 73 1.0 6.0 0.00 0.10 0.00 74 1010.6
20260503081029 39 157 1.0 6.0 0.00 0.10 0.00 75 1010.6
20260503080530 38 117 1.0 6.0 0.00 0.10 0.00 75 1010.7
20260503072530 37 155 2.0 5.0 0.00 0.11 0.00 79 1010.8
20260503072031 37 175 1.0 5.0 0.00 0.11 0.00 81 1011.0
20260503071548 37 333 0.0 6.0 0.00 0.11 0.00 81 1011.0
20260503071029 37 154 1.0 6.0 0.00 0.11 0.00 81 1011.1
20260503070529 37 150 1.0 5.0 0.00 0.11 0.00 81 1011.0
20260503055029 36 131 1.0 3.0 0.00 0.18 0.00 82 1011.0
20260503054553 36 228 0.0 2.0 0.00 0.18 0.00 81 1011.0
20260503054031 36 131 0.0 4.0 0.00 0.18 0.00 81 1010.9
20260503053529 36 96 0.0 4.0 0.00 0.18 0.00 81 1011.1
20260503053043 35 117 0.0 3.0 0.00 0.18 0.00 82 1011.0
20260503052529 35 129 0.0 3.0 0.00 0.18 0.00 82 1011.0
20260503052030 35 143 0.0 2.0 0.00 0.18 0.00 83 1011.0
20260503051541 35 149 0.0 3.0 0.00 0.18 0.00 83 1011.0
20260503051029 35 132 1.0 3.0 0.00 0.18 0.00 82 1011.0
20260503050531 35 0 1.0 2.0 0.00 0.18 0.00 82 1011.0
20260503050043 35 0 0.0 2.0 0.00 0.18 0.00 82 1011.0
20260503045533 35 135 0.0 3.0 0.00 0.18 0.00 82 1011.0
20260503045028 35 143 0.0 3.0 0.00 0.18 0.00 82 1011.0
20260503044543 35 143 0.0 3.0 0.00 0.18 0.00 83 1010.9
20260503044029 35 142 0.0 3.0 0.00 0.18 0.00 83 1011.0
20260503043529 35 0 0.0 3.0 0.00 0.18 0.00 83 1011.0
20260503043047 34 0 1.0 3.0 0.00 0.18 0.00 83 1011.0
20260503042529 35 145 1.0 2.0 0.00 0.18 0.00 84 1011.0
20260503042029 35 116 0.0 1.0 0.00 0.18 0.00 84 1010.9
20260503041547 34 0 0.0 3.0 0.00 0.18 0.00 85 1011.0
20260503041028 34 149 1.0 3.0 0.00 0.18 0.00 85 1011.0
20260503040529 34 0 0.0 2.0 0.00 0.18 0.00 85 1011.1
20260503040048 34 0 0.0 1.0 0.00 0.18 0.00 85 1011.1
20260503035530 35 0 0.0 1.0 0.00 0.18 0.00 85 1011.2
20260503035029 35 0 0.0 1.0 0.00 0.18 0.00 84 1011.1
20260503034546 35 0 0.0 4.0 0.00 0.18 0.00 84 1011.1
20260503034030 35 0 0.0 4.0 0.00 0.18 0.00 83 1011.0
20260503033528 35 0 1.0 4.0 0.00 0.18 0.00 82 1011.0
20260503033058 35 90 1.0 4.0 0.00 0.18 0.00 83 1011.1
20260503032529 35 290 0.0 3.0 0.00 0.18 0.00 83 1011.1
20260503032030 35 0 0.0 3.0 0.00 0.18 0.00 83 1011.1
20260503031552 35 155 0.0 3.0 0.00 0.18 0.00 83 1011.1
20260503031031 35 162 0.0 4.0 0.00 0.18 0.00 83 1011.2
20260503030530 35 92 1.0 4.0 0.00 0.18 0.00 83 1011.2